Tracking 18957 objects as of 23-Jan-2018
HD Live streaming from Space Station
objects crossing your sky now

FENGYUN 1C DEB

Track FENGYUN 1C DEB now!
10-day predictions


NORAD ID: 30673
Int'l Code: 1999-025AQF
Perigee: 855.4 km
Apogee: 931.7 km
Inclination: 99.3 °
Period: 102.7 minutes
Semi major axis: 7264 km
RCS: 0.0189 m2 (small)
Launch date: May 10, 1999
Source: People's Republic of China (PRC)
Launch site: Taiyaun Space Center, China (TSC)

Note: This is SATELLITE DEBRIS
aabbcc
Your satellite tracking list
Your tracking list is empty




NASA's NSSDC Master Catalog

Two Line Element Set (TLE):
1 30673U 99025AQF 18022.56871865 +.00000029 +00000-0 +48334-4 0  9990
2 30673 099.2523 034.8455 0052478 190.0005 291.9957 14.02132787561448
Source of the keplerian elements: AFSPC